Time,TemperatureF,DewpointF,PressureIn,WindDirection,WindDirectionDegrees,WindSpeedMPH,WindSpeedGustMPH,Humidity,HourlyPrecipIn,Conditions,Clouds,dailyrainin,SolarRadiationWatts/m^2,SoftwareType,DateUTC
2013-06-15 00:01:00,61.2,56.0,30.02,NW,318,1.0,1.0,83,0.00,,,0.00,0,Wunderground v.1.15,2013-06-15 04:01:00,
2013-06-15 00:02:00,61.3,56.1,30.02,NW,318,1.0,1.0,83,0.00,,,0.00,0,Wunderground v.1.15,2013-06-15 04:02:00,
2013-06-15 00:03:00,61.2,56.3,30.02,NW,318,1.0,1.0,84,0.00,,,0.00,0,Wunderground v.1.15,2013-06-15 04:03:00,
2013-06-15 00:04:00,61.2,56.0,30.02,NW,318,1.0,1.0,83,0.00,,,0.00,0,Wunderground v.1.15,2013-06-15 04:04:00,
2013-06-15 00:07:00,61.2,56.3,30.02,WNW,303,0.0,1.0,84,0.00,,,0.00,0,Wunderground v.1.15,2013-06-15 04:07:00,
2013-06-15 00:12:00,61.1,56.2,30.02,WNW,303,1.0,1.0,84,0.00,,,0.00,0,Wunderground v.1.15,2013-06-15 04:12:00,
2013-06-15 00:18:00,60.7,56.2,30.02,WNW,303,1.0,1.0,85,0.00,,,0.00,0,Wunderground v.1.15,2013-06-15 04:18:00,
2013-06-15 00:24:00,60.5,56.0,30.02,NNW,327,1.0,1.0,85,0.00,,,0.00,0,Wunderground v.1.15,2013-06-15 04:24:00,
2013-06-15 00:29:00,60.5,56.0,30.02,NNW,338,1.0,2.0,85,0.00,,,0.00,0,Wunderground v.1.15,2013-06-15 04:29:00,
2013-06-15 00:35:00,60.4,55.9,30.02,NW,325,1.0,2.0,85,0.00,,,0.00,0,Wunderground v.1.15,2013-06-15 04:35:00,
2013-06-15 00:41:00,60.4,55.9,30.02,NW,325,0.0,1.0,85,0.00,,,0.00,0,Wunderground v.1.15,2013-06-15 04:41:00,
2013-06-15 00:47:00,60.4,56.2,30.02,NW,325,0.0,1.0,86,0.00,,,0.00,0,Wunderground v.1.15,2013-06-15 04:47:00,
2013-06-15 00:52:00,60.2,56.0,30.02,SE,125,1.0,2.0,86,0.00,,,0.00,0,Wunderground v.1.15,2013-06-15 04:52:00,
2013-06-15 00:57:00,59.7,55.8,30.02,NW,304,1.0,4.0,87,0.00,,,0.00,0,Wunderground v.1.15,2013-06-15 04:57:00,
2013-06-15 01:03:00,59.2,55.6,30.02,NW,307,1.0,2.0,88,0.00,,,0.00,0,Wunderground v.1.15,2013-06-15 05:03:00,
2013-06-15 01:09:00,59.0,55.4,30.02,NW,310,1.0,2.0,88,0.00,,,0.00,0,Wunderground v.1.15,2013-06-15 05:09:00,
2013-06-15 01:15:00,58.9,55.4,30.02,NW,310,0.0,2.0,88,0.00,,,0.00,0,Wunderground v.1.15,2013-06-15 05:15:00,
2013-06-15 01:21:00,58.9,55.7,30.02,SSW,202,1.0,2.0,89,0.00,,,0.00,0,Wunderground v.1.15,2013-06-15 05:21:00,
2013-06-15 01:27:00,58.9,55.7,30.03,SSW,202,1.0,2.0,89,0.00,,,0.00,0,Wunderground v.1.15,2013-06-15 05:27:00,
2013-06-15 01:33:00,58.8,55.6,30.02,NW,314,1.0,4.0,89,0.00,,,0.00,0,Wunderground v.1.15,2013-06-15 05:33:00,
2013-06-15 01:39:00,59.3,55.4,30.03,West,274,1.0,4.0,87,0.00,,,0.00,0,Wunderground v.1.15,2013-06-15 05:39:00,
2013-06-15 01:44:00,59.7,55.5,30.03,SE,136,1.0,2.0,86,0.00,,,0.00,0,Wunderground v.1.15,2013-06-15 05:44:00,
2013-06-15 01:50:00,59.1,55.2,30.03,SE,136,1.0,2.0,87,0.00,,,0.00,0,Wunderground v.1.15,2013-06-15 05:50:00,
2013-06-15 01:56:00,58.7,55.2,30.03,SE,136,1.0,2.0,88,0.00,,,0.00,0,Wunderground v.1.15,2013-06-15 05:56:00,
2013-06-15 02:02:00,58.5,55.0,30.03,SE,136,1.0,1.0,88,0.00,,,0.00,0,Wunderground v.1.15,2013-06-15 06:02:00,
2013-06-15 02:08:00,58.6,55.1,30.04,SE,140,0.0,1.0,88,0.00,,,0.00,0,Wunderground v.1.15,2013-06-15 06:08:00,
2013-06-15 02:14:00,58.4,54.9,30.04,WNW,290,0.0,2.0,88,0.00,,,0.00,0,Wunderground v.1.15,2013-06-15 06:14:00,
2013-06-15 02:20:00,58.7,55.2,30.04,WNW,285,1.0,1.0,88,0.00,,,0.00,0,Wunderground v.1.15,2013-06-15 06:20:00,
2013-06-15 02:26:00,59.0,55.1,30.04,WNW,285,1.0,1.0,87,0.00,,,0.00,0,Wunderground v.1.15,2013-06-15 06:26:00,
2013-06-15 02:32:00,58.6,54.7,30.04,SSW,201,0.0,1.0,87,0.00,,,0.00,0,Wunderground v.1.15,2013-06-15 06:32:00,
2013-06-15 02:37:00,58.2,54.7,30.04,SSW,201,0.0,1.0,88,0.00,,,0.00,0,Wunderground v.1.15,2013-06-15 06:37:00,
2013-06-15 02:43:00,58.0,54.8,30.04,SSW,201,0.0,1.0,89,0.00,,,0.00,0,Wunderground v.1.15,2013-06-15 06:43:00,
2013-06-15 02:49:00,57.8,54.9,30.04,SW,229,0.0,1.0,90,0.00,,,0.00,0,Wunderground v.1.15,2013-06-15 06:49:00,
2013-06-15 02:55:00,57.7,54.8,30.03,SW,229,0.0,1.0,90,0.00,,,0.00,0,Wunderground v.1.15,2013-06-15 06:55:00,
2013-06-15 03:01:00,57.5,54.9,30.03,WSW,238,0.0,1.0,91,0.00,,,0.00,0,Wunderground v.1.15,2013-06-15 07:01:00,
2013-06-15 03:07:00,57.3,55.0,30.03,WSW,238,1.0,1.0,92,0.00,,,0.00,0,Wunderground v.1.15,2013-06-15 07:07:00,
2013-06-15 03:13:00,57.2,54.9,30.03,West,271,1.0,2.0,92,0.00,,,0.00,0,Wunderground v.1.15,2013-06-15 07:13:00,
2013-06-15 03:19:00,57.1,54.8,30.03,West,271,1.0,2.0,92,0.00,,,0.00,0,Wunderground v.1.15,2013-06-15 07:19:00,
2013-06-15 03:25:00,57.0,54.7,30.03,West,271,0.0,1.0,92,0.00,,,0.00,0,Wunderground v.1.15,2013-06-15 07:25:00,
2013-06-15 03:31:00,57.0,54.7,30.03,West,271,0.0,1.0,92,0.00,,,0.00,0,Wunderground v.1.15,2013-06-15 07:31:00,
2013-06-15 03:37:00,57.0,54.7,30.03,West,271,0.0,1.0,92,0.00,,,0.00,0,Wunderground v.1.15,2013-06-15 07:37:00,
2013-06-15 03:43:00,56.9,54.6,30.03,West,271,0.0,1.0,92,0.00,,,0.00,0,Wunderground v.1.15,2013-06-15 07:43:00,
2013-06-15 03:49:00,56.9,54.9,30.03,West,271,0.0,1.0,93,0.00,,,0.00,0,Wunderground v.1.15,2013-06-15 07:49:00,
2013-06-15 03:55:00,57.0,55.0,30.04,West,271,0.0,1.0,93,0.00,,,0.00,0,Wunderground v.1.15,2013-06-15 07:55:00,
2013-06-15 04:00:00,56.9,54.6,30.03,West,271,0.0,1.0,92,0.00,,,0.00,0,Wunderground v.1.15,2013-06-15 08:00:00,
2013-06-15 04:06:00,56.8,54.5,30.03,West,271,0.0,1.0,92,0.00,,,0.00,0,Wunderground v.1.15,2013-06-15 08:06:00,
2013-06-15 04:12:00,56.6,54.3,30.03,West,271,0.0,1.0,92,0.00,,,0.00,0,Wunderground v.1.15,2013-06-15 08:12:00,
2013-06-15 04:18:00,56.4,54.1,30.03,West,271,0.0,1.0,92,0.00,,,0.00,0,Wunderground v.1.15,2013-06-15 08:18:00,
2013-06-15 04:24:00,56.3,54.0,30.04,West,271,0.0,1.0,92,0.00,,,0.00,0,Wunderground v.1.15,2013-06-15 08:24:00,
2013-06-15 04:29:00,56.2,54.2,30.04,West,271,0.0,1.0,93,0.00,,,0.00,0,Wunderground v.1.15,2013-06-15 08:29:00,
2013-06-15 04:35:00,56.1,54.1,30.04,West,271,0.0,1.0,93,0.00,,,0.00,0,Wunderground v.1.15,2013-06-15 08:35:00,
2013-06-15 04:40:00,56.1,54.1,30.03,West,271,0.0,1.0,93,0.00,,,0.00,0,Wunderground v.1.15,2013-06-15 08:40:00,
2013-06-15 04:46:00,56.1,54.1,30.03,West,271,0.0,1.0,93,0.00,,,0.00,0,Wunderground v.1.15,2013-06-15 08:46:00,
2013-06-15 04:51:00,56.1,54.4,30.03,West,271,0.0,1.0,94,0.00,,,0.00,0,Wunderground v.1.15,2013-06-15 08:51:00,
2013-06-15 04:57:00,56.1,54.4,30.03,West,271,0.0,1.0,94,0.00,,,0.00,0,Wunderground v.1.15,2013-06-15 08:57:00,
2013-06-15 05:03:00,55.9,53.9,30.04,West,271,0.0,1.0,93,0.00,,,0.00,0,Wunderground v.1.15,2013-06-15 09:03:00,
2013-06-15 05:09:00,55.9,53.9,30.04,West,271,0.0,1.0,93,0.00,,,0.00,0,Wunderground v.1.15,2013-06-15 09:09:00,
2013-06-15 05:14:00,55.9,53.9,30.05,West,271,0.0,1.0,93,0.00,,,0.00,0,Wunderground v.1.15,2013-06-15 09:14:00,
2013-06-15 05:20:00,55.8,53.8,30.05,West,271,0.0,1.0,93,0.00,,,0.00,0,Wunderground v.1.15,2013-06-15 09:20:00,
2013-06-15 05:25:00,55.6,53.6,30.05,SSW,199,1.0,1.0,93,0.00,,,0.00,0,Wunderground v.1.15,2013-06-15 09:25:00,
2013-06-15 05:31:00,55.3,53.3,30.05,SSW,199,0.0,1.0,93,0.00,,,0.00,0,Wunderground v.1.15,2013-06-15 09:31:00,
2013-06-15 05:36:00,55.2,53.2,30.05,SSW,199,0.0,1.0,93,0.00,,,0.00,5,Wunderground v.1.15,2013-06-15 09:36:00,
2013-06-15 05:42:00,55.1,53.4,30.05,SSW,199,0.0,1.0,94,0.00,,,0.00,7,Wunderground v.1.15,2013-06-15 09:42:00,
2013-06-15 05:48:00,55.1,53.4,30.05,SSW,199,0.0,1.0,94,0.00,,,0.00,11,Wunderground v.1.15,2013-06-15 09:48:00,
2013-06-15 05:54:00,55.2,53.8,30.05,SSW,207,0.0,1.0,95,0.00,,,0.00,14,Wunderground v.1.15,2013-06-15 09:54:00,
2013-06-15 06:00:00,55.2,53.8,30.06,SSW,207,0.0,1.0,95,0.00,,,0.00,18,Wunderground v.1.15,2013-06-15 10:00:00,
2013-06-15 06:06:00,55.3,53.9,30.06,SSW,207,0.0,1.0,95,0.00,,,0.00,21,Wunderground v.1.15,2013-06-15 10:06:00,
2013-06-15 06:12:00,55.3,53.9,30.06,SSW,207,0.0,1.0,95,0.00,,,0.00,25,Wunderground v.1.15,2013-06-15 10:12:00,
2013-06-15 06:17:00,55.3,53.6,30.06,SSW,207,0.0,1.0,94,0.00,,,0.00,28,Wunderground v.1.15,2013-06-15 10:17:00,
2013-06-15 06:23:00,55.1,53.4,30.06,SSE,161,1.0,2.0,94,0.00,,,0.00,32,Wunderground v.1.15,2013-06-15 10:23:00,
2013-06-15 06:29:00,55.0,53.3,30.07,SSE,161,1.0,2.0,94,0.00,,,0.00,35,Wunderground v.1.15,2013-06-15 10:29:00,
2013-06-15 06:35:00,55.0,53.3,30.07,SSW,211,0.0,1.0,94,0.00,,,0.00,39,Wunderground v.1.15,2013-06-15 10:35:00,
2013-06-15 06:41:00,55.1,53.7,30.07,SSW,211,0.0,1.0,95,0.00,,,0.00,42,Wunderground v.1.15,2013-06-15 10:41:00,
2013-06-15 06:47:00,55.4,54.0,30.07,SW,226,1.0,1.0,95,0.00,,,0.00,46,Wunderground v.1.15,2013-06-15 10:47:00,
2013-06-15 06:53:00,55.7,54.3,30.08,WSW,250,1.0,1.0,95,0.00,,,0.00,49,Wunderground v.1.15,2013-06-15 10:53:00,
2013-06-15 06:59:00,55.9,54.2,30.08,West,266,1.0,1.0,94,0.00,,,0.00,54,Wunderground v.1.15,2013-06-15 10:59:00,
2013-06-15 07:04:00,56.1,54.4,30.09,West,267,1.0,2.0,94,0.00,,,0.00,62,Wunderground v.1.15,2013-06-15 11:04:00,
2013-06-15 07:10:00,56.4,54.7,30.09,West,267,1.0,2.0,94,0.00,,,0.00,88,Wunderground v.1.15,2013-06-15 11:10:00,
2013-06-15 07:16:00,56.7,55.0,30.09,West,267,1.0,2.0,94,0.00,,,0.00,190,Wunderground v.1.15,2013-06-15 11:16:00,
2013-06-15 07:22:00,57.0,55.0,30.10,West,267,0.0,2.0,93,0.00,,,0.00,77,Wunderground v.1.15,2013-06-15 11:22:00,
2013-06-15 07:28:00,57.5,55.2,30.10,West,267,0.0,2.0,92,0.00,,,0.00,88,Wunderground v.1.15,2013-06-15 11:28:00,
2013-06-15 07:33:00,58.0,55.7,30.10,West,268,1.0,2.0,92,0.00,,,0.00,135,Wunderground v.1.15,2013-06-15 11:33:00,
2013-06-15 07:39:00,58.6,56.0,30.10,South,176,1.0,2.0,91,0.00,,,0.00,107,Wunderground v.1.15,2013-06-15 11:39:00,
2013-06-15 07:45:00,58.9,55.7,30.10,SE,130,1.0,3.0,89,0.00,,,0.00,90,Wunderground v.1.15,2013-06-15 11:45:00,
2013-06-15 07:51:00,59.3,56.1,30.10,SE,142,1.0,2.0,89,0.00,,,0.00,100,Wunderground v.1.15,2013-06-15 11:51:00,
2013-06-15 07:56:00,59.5,56.3,30.10,SE,142,1.0,2.0,89,0.00,,,0.00,329,Wunderground v.1.15,2013-06-15 11:56:00,
2013-06-15 08:02:00,60.3,56.7,30.10,SSE,150,1.0,1.0,88,0.00,,,0.00,352,Wunderground v.1.15,2013-06-15 12:02:00,
2013-06-15 08:08:00,61.1,56.9,30.10,ESE,115,1.0,4.0,86,0.00,,,0.00,373,Wunderground v.1.15,2013-06-15 12:08:00,
2013-06-15 08:13:00,61.8,57.6,30.10,ESE,121,2.0,2.0,86,0.00,,,0.00,390,Wunderground v.1.15,2013-06-15 12:13:00,
2013-06-15 08:19:00,62.6,57.7,30.11,SE,128,1.0,2.0,84,0.00,,,0.00,411,Wunderground v.1.15,2013-06-15 12:19:00,
2013-06-15 08:25:00,63.3,58.0,30.10,NW,308,1.0,1.0,83,0.00,,,0.00,441,Wunderground v.1.15,2013-06-15 12:25:00,
2013-06-15 08:31:00,64.0,58.7,30.10,SE,144,1.0,1.0,83,0.00,,,0.00,461,Wunderground v.1.15,2013-06-15 12:31:00,
2013-06-15 08:37:00,64.5,58.2,30.11,South,186,1.0,2.0,80,0.00,,,0.00,464,Wunderground v.1.15,2013-06-15 12:37:00,
2013-06-15 08:42:00,64.9,58.2,30.11,West,270,2.0,2.0,79,0.00,,,0.00,489,Wunderground v.1.15,2013-06-15 12:42:00,
2013-06-15 08:47:00,65.4,58.4,30.11,SE,127,2.0,2.0,78,0.00,,,0.00,504,Wunderground v.1.15,2013-06-15 12:47:00,
2013-06-15 08:53:00,65.7,58.3,30.10,SE,138,2.0,2.0,77,0.00,,,0.00,510,Wunderground v.1.15,2013-06-15 12:53:00,
2013-06-15 08:58:00,65.5,58.1,30.10,ESE,103,4.0,7.0,77,0.00,,,0.00,517,Wunderground v.1.15,2013-06-15 12:58:00,
2013-06-15 09:04:00,66.0,58.6,30.10,WNW,296,3.0,6.0,77,0.00,,,0.00,545,Wunderground v.1.15,2013-06-15 13:04:00,
2013-06-15 09:10:00,66.5,58.7,30.11,North,9,3.0,5.0,76,0.00,,,0.00,568,Wunderground v.1.15,2013-06-15 13:10:00,
2013-06-15 09:15:00,66.9,58.3,30.11,North,5,3.0,5.0,74,0.00,,,0.00,599,Wunderground v.1.15,2013-06-15 13:15:00,
2013-06-15 09:20:00,67.2,58.6,30.10,NW,306,3.0,3.0,74,0.00,,,0.00,598,Wunderground v.1.15,2013-06-15 13:20:00,
2013-06-15 09:26:00,67.0,58.4,30.10,NNW,329,2.0,5.0,74,0.00,,,0.00,613,Wunderground v.1.15,2013-06-15 13:26:00,
2013-06-15 09:31:00,67.2,57.9,30.11,NW,325,2.0,5.0,72,0.00,,,0.00,626,Wunderground v.1.15,2013-06-15 13:31:00,
2013-06-15 09:36:00,67.7,58.7,30.11,WNW,302,3.0,5.0,73,0.00,,,0.00,643,Wunderground v.1.15,2013-06-15 13:36:00,
2013-06-15 09:41:00,68.0,58.6,30.11,NW,308,3.0,5.0,72,0.00,,,0.00,663,Wunderground v.1.15,2013-06-15 13:41:00,
2013-06-15 09:47:00,68.2,58.4,30.10,WNW,286,3.0,5.0,71,0.00,,,0.00,673,Wunderground v.1.15,2013-06-15 13:47:00,
2013-06-15 09:53:00,68.5,59.5,30.10,NW,306,2.0,5.0,73,0.00,,,0.00,686,Wunderground v.1.15,2013-06-15 13:53:00,
2013-06-15 09:59:00,68.9,59.1,30.10,West,264,2.0,5.0,71,0.00,,,0.00,694,Wunderground v.1.15,2013-06-15 13:59:00,
2013-06-15 10:04:00,68.7,58.5,30.10,ENE,77,3.0,5.0,70,0.00,,,0.00,707,Wunderground v.1.15,2013-06-15 14:04:00,
2013-06-15 10:09:00,69.0,59.2,30.10,West,280,2.0,5.0,71,0.00,,,0.00,715,Wunderground v.1.15,2013-06-15 14:09:00,
2013-06-15 10:15:00,69.4,58.8,30.10,NW,311,3.0,5.0,69,0.00,,,0.00,729,Wunderground v.1.15,2013-06-15 14:15:00,
2013-06-15 10:21:00,69.7,59.1,30.10,West,271,3.0,5.0,69,0.00,,,0.00,742,Wunderground v.1.15,2013-06-15 14:21:00,
2013-06-15 10:26:00,70.0,57.7,30.10,NNW,345,3.0,5.0,65,0.00,,,0.00,752,Wunderground v.1.15,2013-06-15 14:26:00,
2013-06-15 10:32:00,70.4,58.5,30.09,WNW,293,3.0,5.0,66,0.00,,,0.00,759,Wunderground v.1.15,2013-06-15 14:32:00,
2013-06-15 10:37:00,70.4,57.2,30.09,North,355,3.0,5.0,63,0.00,,,0.00,775,Wunderground v.1.15,2013-06-15 14:37:00,
2013-06-15 10:43:00,70.5,57.7,30.09,WNW,286,3.0,5.0,64,0.00,,,0.00,788,Wunderground v.1.15,2013-06-15 14:43:00,
2013-06-15 10:49:00,70.6,57.8,30.09,North,355,3.0,5.0,64,0.00,,,0.00,800,Wunderground v.1.15,2013-06-15 14:49:00,
2013-06-15 10:54:00,70.8,56.2,30.09,West,269,3.0,5.0,60,0.00,,,0.00,810,Wunderground v.1.15,2013-06-15 14:54:00,
2013-06-15 11:00:00,71.0,56.9,30.09,ESE,111,3.0,3.0,61,0.00,,,0.00,823,Wunderground v.1.15,2013-06-15 15:00:00,
2013-06-15 11:06:00,71.5,57.3,30.09,NNW,348,2.0,6.0,61,0.00,,,0.00,828,Wunderground v.1.15,2013-06-15 15:06:00,
2013-06-15 11:12:00,71.7,57.1,30.09,NW,309,3.0,6.0,60,0.00,,,0.00,844,Wunderground v.1.15,2013-06-15 15:12:00,
2013-06-15 11:18:00,72.2,57.5,30.09,North,350,4.0,6.0,60,0.00,,,0.00,881,Wunderground v.1.15,2013-06-15 15:18:00,
2013-06-15 11:24:00,72.4,58.2,30.09,NNW,344,4.0,6.0,61,0.00,,,0.00,860,Wunderground v.1.15,2013-06-15 15:24:00,
2013-06-15 11:30:00,72.8,57.6,30.09,SE,133,3.0,6.0,59,0.00,,,0.00,854,Wunderground v.1.15,2013-06-15 15:30:00,
2013-06-15 11:36:00,73.1,58.4,30.08,WNW,291,3.0,6.0,60,0.00,,,0.00,863,Wunderground v.1.15,2013-06-15 15:36:00,
2013-06-15 11:41:00,73.2,57.1,30.08,WNW,300,3.0,6.0,57,0.00,,,0.00,919,Wunderground v.1.15,2013-06-15 15:41:00,
2013-06-15 11:47:00,73.3,57.6,30.09,NW,325,3.0,6.0,58,0.00,,,0.00,923,Wunderground v.1.15,2013-06-15 15:47:00,
2013-06-15 11:52:00,73.9,58.7,30.08,WNW,292,4.0,6.0,59,0.00,,,0.00,889,Wunderground v.1.15,2013-06-15 15:52:00,
2013-06-15 11:58:00,74.2,57.0,30.08,NNW,327,4.0,6.0,55,0.00,,,0.00,946,Wunderground v.1.15,2013-06-15 15:58:00,
2013-06-15 12:04:00,74.2,53.8,30.08,North,360,5.0,12.0,49,0.00,,,0.00,972,Wunderground v.1.15,2013-06-15 16:04:00,
2013-06-15 12:10:00,73.5,54.8,30.08,WNW,286,6.0,6.0,52,0.00,,,0.00,947,Wunderground v.1.15,2013-06-15 16:10:00,
2013-06-15 12:16:00,74.0,56.8,30.08,West,263,6.0,12.0,55,0.00,,,0.00,1009,Wunderground v.1.15,2013-06-15 16:16:00,
2013-06-15 12:22:00,74.3,56.1,30.08,NW,323,5.0,12.0,53,0.00,,,0.00,195,Wunderground v.1.15,2013-06-15 16:22:00,
2013-06-15 12:28:00,73.9,55.7,30.08,WNW,291,5.0,12.0,53,0.00,,,0.00,963,Wunderground v.1.15,2013-06-15 16:28:00,
2013-06-15 12:33:00,74.3,56.6,30.07,NW,308,4.0,12.0,54,0.00,,,0.00,1067,Wunderground v.1.15,2013-06-15 16:33:00,
2013-06-15 12:39:00,74.6,57.9,30.07,NNW,328,4.0,12.0,56,0.00,,,0.00,956,Wunderground v.1.15,2013-06-15 16:39:00,
2013-06-15 12:45:00,74.9,55.6,30.07,WNW,301,5.0,12.0,51,0.00,,,0.00,970,Wunderground v.1.15,2013-06-15 16:45:00,
2013-06-15 12:51:00,74.9,55.6,30.07,NNW,336,5.0,12.0,51,0.00,,,0.00,1000,Wunderground v.1.15,2013-06-15 16:51:00,
2013-06-15 12:57:00,75.4,56.5,30.07,WNW,298,5.0,12.0,52,0.00,,,0.00,1041,Wunderground v.1.15,2013-06-15 16:57:00,
2013-06-15 13:03:00,75.7,55.7,30.07,WNW,302,4.0,9.0,50,0.00,,,0.00,1028,Wunderground v.1.15,2013-06-15 17:03:00,
2013-06-15 13:09:00,75.9,54.2,30.06,North,5,4.0,9.0,47,0.00,,,0.00,1027,Wunderground v.1.15,2013-06-15 17:09:00,
2013-06-15 13:15:00,75.8,54.1,30.06,NW,311,5.0,10.0,47,0.00,,,0.00,258,Wunderground v.1.15,2013-06-15 17:15:00,
2013-06-15 13:20:00,75.6,54.5,30.06,NW,306,5.0,9.0,48,0.00,,,0.00,1030,Wunderground v.1.15,2013-06-15 17:20:00,
2013-06-15 13:26:00,76.1,56.1,30.06,NNW,348,4.0,9.0,50,0.00,,,0.00,1056,Wunderground v.1.15,2013-06-15 17:26:00,
2013-06-15 13:32:00,76.6,54.9,30.06,WNW,285,3.0,9.0,47,0.00,,,0.00,255,Wunderground v.1.15,2013-06-15 17:32:00,
2013-06-15 13:37:00,76.3,54.0,30.06,WNW,286,4.0,9.0,46,0.00,,,0.00,932,Wunderground v.1.15,2013-06-15 17:37:00,
2013-06-15 13:43:00,76.9,53.3,30.06,North,355,4.0,9.0,44,0.00,,,0.00,977,Wunderground v.1.15,2013-06-15 17:43:00,
2013-06-15 13:49:00,76.8,53.8,30.05,North,360,5.0,9.0,45,0.00,,,0.00,947,Wunderground v.1.15,2013-06-15 17:49:00,
2013-06-15 13:55:00,76.8,52.6,30.05,West,264,4.0,9.0,43,0.00,,,0.00,963,Wunderground v.1.15,2013-06-15 17:55:00,
2013-06-15 14:00:00,77.1,55.9,30.05,North,5,4.0,9.0,48,0.00,,,0.00,954,Wunderground v.1.15,2013-06-15 18:00:00,
2013-06-15 14:06:00,77.3,53.7,30.04,North,10,5.0,9.0,44,0.00,,,0.00,916,Wunderground v.1.15,2013-06-15 18:06:00,
2013-06-15 14:11:00,77.5,53.9,30.04,WNW,288,5.0,6.0,44,0.00,,,0.00,844,Wunderground v.1.15,2013-06-15 18:11:00,
2013-06-15 14:17:00,77.4,52.5,30.04,NW,311,4.0,9.0,42,0.00,,,0.00,984,Wunderground v.1.15,2013-06-15 18:17:00,
2013-06-15 14:22:00,77.2,53.0,30.05,NNW,335,4.0,9.0,43,0.00,,,0.00,229,Wunderground v.1.15,2013-06-15 18:22:00,
2013-06-15 14:28:00,76.7,53.8,30.04,North,355,4.0,9.0,45,0.00,,,0.00,227,Wunderground v.1.15,2013-06-15 18:28:00,
2013-06-15 14:33:00,76.7,52.5,30.04,WNW,288,4.0,9.0,43,0.00,,,0.00,954,Wunderground v.1.15,2013-06-15 18:33:00,
2013-06-15 14:39:00,76.6,53.7,30.04,WNW,285,4.0,9.0,45,0.00,,,0.00,197,Wunderground v.1.15,2013-06-15 18:39:00,
2013-06-15 14:44:00,76.7,53.8,30.04,WNW,291,5.0,9.0,45,0.00,,,0.00,954,Wunderground v.1.15,2013-06-15 18:44:00,
2013-06-15 14:49:00,76.8,53.8,30.03,NNW,327,4.0,9.0,45,0.00,,,0.00,962,Wunderground v.1.15,2013-06-15 18:49:00,
2013-06-15 14:55:00,77.0,54.6,30.03,NW,319,4.0,9.0,46,0.00,,,0.00,306,Wunderground v.1.15,2013-06-15 18:55:00,
2013-06-15 15:00:00,76.4,53.5,30.03,WNW,299,3.0,3.0,45,0.00,,,0.00,220,Wunderground v.1.15,2013-06-15 19:00:00,
2013-06-15 15:07:00,76.1,53.2,30.03,NNW,341,3.0,4.0,45,0.00,,,0.00,174,Wunderground v.1.15,2013-06-15 19:07:00,
2013-06-15 15:12:00,76.1,53.2,30.03,NW,315,3.0,5.0,45,0.00,,,0.00,197,Wunderground v.1.15,2013-06-15 19:12:00,
2013-06-15 15:17:00,76.4,52.2,30.02,SSE,153,3.0,5.0,43,0.00,,,0.00,879,Wunderground v.1.15,2013-06-15 19:17:00,
2013-06-15 15:23:00,76.9,52.7,30.02,North,5,3.0,5.0,43,0.00,,,0.00,216,Wunderground v.1.15,2013-06-15 19:23:00,
2013-06-15 15:29:00,76.8,53.8,30.02,NW,315,3.0,5.0,45,0.00,,,0.00,863,Wunderground v.1.15,2013-06-15 19:29:00,
2013-06-15 15:35:00,77.3,52.4,30.02,North,355,3.0,4.0,42,0.00,,,0.00,835,Wunderground v.1.15,2013-06-15 19:35:00,
2013-06-15 15:40:00,77.5,53.2,30.02,WNW,300,2.0,2.0,43,0.00,,,0.00,740,Wunderground v.1.15,2013-06-15 19:40:00,
2013-06-15 15:46:00,78.1,53.1,30.02,WNW,290,2.0,5.0,42,0.00,,,0.00,821,Wunderground v.1.15,2013-06-15 19:46:00,
2013-06-15 15:52:00,78.3,55.2,30.02,NW,319,3.0,4.0,45,0.00,,,0.00,786,Wunderground v.1.15,2013-06-15 19:52:00,
2013-06-15 15:58:00,78.4,53.4,30.02,WNW,286,3.0,5.0,42,0.00,,,0.00,756,Wunderground v.1.15,2013-06-15 19:58:00,
2013-06-15 16:03:00,78.4,54.0,30.01,West,262,3.0,5.0,43,0.00,,,0.00,772,Wunderground v.1.15,2013-06-15 20:03:00,
2013-06-15 16:09:00,78.1,53.1,30.01,North,360,3.0,5.0,42,0.00,,,0.00,656,Wunderground v.1.15,2013-06-15 20:09:00,
2013-06-15 16:15:00,78.5,55.4,30.02,NW,304,2.0,5.0,45,0.00,,,0.00,527,Wunderground v.1.15,2013-06-15 20:15:00,
2013-06-15 16:21:00,78.7,55.0,30.02,NW,308,3.0,5.0,44,0.00,,,0.00,485,Wunderground v.1.15,2013-06-15 20:21:00,
2013-06-15 16:27:00,78.3,53.3,30.02,WNW,293,4.0,5.0,42,0.00,,,0.00,512,Wunderground v.1.15,2013-06-15 20:27:00,
2013-06-15 16:33:00,77.8,52.9,30.02,WSW,256,3.0,5.0,42,0.00,,,0.00,234,Wunderground v.1.15,2013-06-15 20:33:00,
2013-06-15 16:38:00,78.0,52.4,30.02,WNW,296,3.0,5.0,41,0.00,,,0.00,418,Wunderground v.1.15,2013-06-15 20:38:00,
2013-06-15 16:44:00,78.2,53.2,30.02,NW,322,3.0,5.0,42,0.00,,,0.00,418,Wunderground v.1.15,2013-06-15 20:44:00,
2013-06-15 16:49:00,77.8,52.2,30.02,WNW,300,4.0,6.0,41,0.00,,,0.00,197,Wunderground v.1.15,2013-06-15 20:49:00,
2013-06-15 16:55:00,77.5,53.2,30.02,WNW,296,3.0,8.0,43,0.00,,,0.00,290,Wunderground v.1.15,2013-06-15 20:55:00,
2013-06-15 17:00:00,77.5,53.2,30.02,SW,235,2.0,2.0,43,0.00,,,0.00,320,Wunderground v.1.15,2013-06-15 21:00:00,
2013-06-15 17:06:00,77.6,52.7,30.02,WSW,238,2.0,5.0,42,0.00,,,0.00,396,Wunderground v.1.15,2013-06-15 21:06:00,
2013-06-15 17:12:00,77.6,52.7,30.02,WNW,282,3.0,4.0,42,0.00,,,0.00,396,Wunderground v.1.15,2013-06-15 21:12:00,
2013-06-15 17:18:00,78.0,53.7,30.02,NNW,342,3.0,5.0,43,0.00,,,0.00,550,Wunderground v.1.15,2013-06-15 21:18:00,
2013-06-15 17:24:00,78.5,53.5,30.02,SSW,213,3.0,7.0,42,0.00,,,0.00,503,Wunderground v.1.15,2013-06-15 21:24:00,
2013-06-15 17:29:00,78.6,52.3,30.02,NE,54,3.0,7.0,40,0.00,,,0.00,401,Wunderground v.1.15,2013-06-15 21:29:00,
2013-06-15 17:35:00,78.3,52.0,30.02,SW,223,3.0,7.0,40,0.00,,,0.00,359,Wunderground v.1.15,2013-06-15 21:35:00,
2013-06-15 17:41:00,77.9,52.3,30.02,West,273,4.0,4.0,41,0.00,,,0.00,327,Wunderground v.1.15,2013-06-15 21:41:00,
2013-06-15 17:46:00,77.7,52.8,30.02,NW,326,3.0,4.0,42,0.00,,,0.00,283,Wunderground v.1.15,2013-06-15 21:46:00,
2013-06-15 17:52:00,77.6,52.0,30.02,North,355,3.0,3.0,41,0.00,,,0.00,371,Wunderground v.1.15,2013-06-15 21:52:00,
2013-06-15 17:58:00,77.7,52.1,30.02,NW,317,4.0,6.0,41,0.00,,,0.00,348,Wunderground v.1.15,2013-06-15 21:58:00,
2013-06-15 18:03:00,77.8,52.2,30.02,West,267,4.0,7.0,41,0.00,,,0.00,316,Wunderground v.1.15,2013-06-15 22:03:00,
2013-06-15 18:09:00,77.8,52.2,30.02,WSW,257,3.0,7.0,41,0.00,,,0.00,244,Wunderground v.1.15,2013-06-15 22:09:00,
2013-06-15 18:15:00,77.7,53.4,30.02,West,269,3.0,7.0,43,0.00,,,0.00,200,Wunderground v.1.15,2013-06-15 22:15:00,
2013-06-15 18:21:00,77.7,51.5,30.01,WNW,299,2.0,7.0,40,0.00,,,0.00,272,Wunderground v.1.15,2013-06-15 22:21:00,
2013-06-15 18:26:00,77.6,52.7,30.01,North,349,3.0,7.0,42,0.00,,,0.00,237,Wunderground v.1.15,2013-06-15 22:26:00,
2013-06-15 18:32:00,77.5,52.6,30.01,WSW,241,3.0,7.0,42,0.00,,,0.00,218,Wunderground v.1.15,2013-06-15 22:32:00,
2013-06-15 18:37:00,77.2,52.3,30.01,West,260,3.0,8.0,42,0.00,,,0.00,199,Wunderground v.1.15,2013-06-15 22:37:00,
2013-06-15 18:43:00,77.2,52.3,30.01,NW,306,3.0,7.0,42,0.00,,,0.00,172,Wunderground v.1.15,2013-06-15 22:43:00,
2013-06-15 18:49:00,77.0,53.4,30.01,West,281,2.0,7.0,44,0.00,,,0.00,146,Wunderground v.1.15,2013-06-15 22:49:00,
2013-06-15 18:55:00,76.7,53.1,30.02,West,281,3.0,7.0,44,0.00,,,0.00,188,Wunderground v.1.15,2013-06-15 22:55:00,
2013-06-15 19:00:00,76.8,53.2,30.02,NW,304,2.0,4.0,44,0.00,,,0.00,209,Wunderground v.1.15,2013-06-15 23:00:00,
2013-06-15 19:06:00,77.0,53.4,30.02,WNW,301,2.0,4.0,44,0.00,,,0.00,220,Wunderground v.1.15,2013-06-15 23:06:00,
2013-06-15 19:12:00,76.9,53.3,30.02,NW,306,3.0,5.0,44,0.00,,,0.00,137,Wunderground v.1.15,2013-06-15 23:12:00,
2013-06-15 19:18:00,76.8,53.8,30.02,NW,319,2.0,5.0,45,0.00,,,0.00,186,Wunderground v.1.15,2013-06-15 23:18:00,
2013-06-15 19:24:00,76.6,53.7,30.02,NNW,329,2.0,5.0,45,0.00,,,0.00,123,Wunderground v.1.15,2013-06-15 23:24:00,
2013-06-15 19:30:00,76.4,53.5,30.02,NW,306,2.0,3.0,45,0.00,,,0.00,120,Wunderground v.1.15,2013-06-15 23:30:00,
2013-06-15 19:36:00,76.1,53.8,30.03,NNW,348,2.0,3.0,46,0.00,,,0.00,69,Wunderground v.1.15,2013-06-15 23:36:00,
2013-06-15 19:42:00,75.7,54.6,30.03,NW,323,2.0,3.0,48,0.00,,,0.00,46,Wunderground v.1.15,2013-06-15 23:42:00,
2013-06-15 19:48:00,75.3,54.3,30.03,NW,321,2.0,3.0,48,0.00,,,0.00,32,Wunderground v.1.15,2013-06-15 23:48:00,
2013-06-15 19:54:00,74.9,54.4,30.03,NW,316,1.0,3.0,49,0.00,,,0.00,33,Wunderground v.1.15,2013-06-15 23:54:00,
2013-06-15 19:59:00,74.6,54.2,30.02,NW,317,1.0,3.0,49,0.00,,,0.00,37,Wunderground v.1.15,2013-06-15 23:59:00,
2013-06-15 20:04:00,74.4,54.0,30.03,WNW,303,1.0,2.0,49,0.00,,,0.00,35,Wunderground v.1.15,2013-06-16 00:04:00,
2013-06-15 20:09:00,74.1,53.7,30.03,NW,324,2.0,3.0,49,0.00,,,0.00,32,Wunderground v.1.15,2013-06-16 00:09:00,
2013-06-15 20:15:00,73.8,54.0,30.03,North,360,1.0,2.0,50,0.00,,,0.00,25,Wunderground v.1.15,2013-06-16 00:15:00,
2013-06-15 20:21:00,73.6,53.8,30.03,WNW,303,1.0,2.0,50,0.00,,,0.00,21,Wunderground v.1.15,2013-06-16 00:21:00,
2013-06-15 20:26:00,73.4,53.1,30.03,WNW,291,1.0,2.0,49,0.00,,,0.00,16,Wunderground v.1.15,2013-06-16 00:26:00,
2013-06-15 20:32:00,73.3,53.0,30.02,WNW,296,1.0,2.0,49,0.00,,,0.00,11,Wunderground v.1.15,2013-06-16 00:32:00,
2013-06-15 20:37:00,73.1,52.8,30.03,NW,312,1.0,2.0,49,0.00,,,0.00,9,Wunderground v.1.15,2013-06-16 00:37:00,
2013-06-15 20:43:00,72.9,52.6,30.02,NW,310,1.0,2.0,49,0.00,,,0.00,5,Wunderground v.1.15,2013-06-16 00:43:00,
2013-06-15 20:49:00,72.6,52.9,30.02,WNW,293,1.0,2.0,50,0.00,,,0.00,0,Wunderground v.1.15,2013-06-16 00:49:00,
2013-06-15 20:55:00,72.2,53.1,30.02,NW,319,1.0,2.0,51,0.00,,,0.00,0,Wunderground v.1.15,2013-06-16 00:55:00,
2013-06-15 21:00:00,71.9,53.3,30.03,NW,319,1.0,1.0,52,0.00,,,0.00,0,Wunderground v.1.15,2013-06-16 01:00:00,
2013-06-15 21:06:00,71.5,52.9,30.03,NW,319,1.0,2.0,52,0.00,,,0.00,0,Wunderground v.1.15,2013-06-16 01:06:00,
2013-06-15 21:11:00,71.2,52.7,30.03,NW,319,1.0,1.0,52,0.00,,,0.00,0,Wunderground v.1.15,2013-06-16 01:11:00,
2013-06-15 21:17:00,70.9,53.9,30.03,NW,319,0.0,1.0,55,0.00,,,0.00,0,Wunderground v.1.15,2013-06-16 01:17:00,
2013-06-15 21:23:00,70.5,53.1,30.03,NNW,328,1.0,1.0,54,0.00,,,0.00,0,Wunderground v.1.15,2013-06-16 01:23:00,
2013-06-15 21:28:00,70.2,53.8,30.03,NNW,328,1.0,1.0,56,0.00,,,0.00,0,Wunderground v.1.15,2013-06-16 01:28:00,
2013-06-15 21:34:00,69.9,54.0,30.03,NNW,328,0.0,1.0,57,0.00,,,0.00,0,Wunderground v.1.15,2013-06-16 01:34:00,
2013-06-15 21:40:00,69.7,53.8,30.03,NNW,328,0.0,1.0,57,0.00,,,0.00,0,Wunderground v.1.15,2013-06-16 01:40:00,
2013-06-15 21:45:00,69.5,54.5,30.04,SE,134,0.0,2.0,59,0.00,,,0.00,0,Wunderground v.1.15,2013-06-16 01:45:00,
2013-06-15 21:51:00,69.0,55.4,30.04,SE,134,1.0,1.0,62,0.00,,,0.00,0,Wunderground v.1.15,2013-06-16 01:51:00,
2013-06-15 21:57:00,68.6,55.9,30.05,SE,134,0.0,1.0,64,0.00,,,0.00,0,Wunderground v.1.15,2013-06-16 01:57:00,
2013-06-15 22:03:00,68.0,55.8,30.05,SE,134,0.0,1.0,65,0.00,,,0.00,0,Wunderground v.1.15,2013-06-16 02:03:00,
2013-06-15 22:09:00,67.5,55.7,30.05,SE,134,1.0,2.0,66,0.00,,,0.00,0,Wunderground v.1.15,2013-06-16 02:09:00,
2013-06-15 22:14:00,67.2,55.5,30.06,SE,134,1.0,1.0,66,0.00,,,0.00,0,Wunderground v.1.15,2013-06-16 02:14:00,
2013-06-15 22:20:00,67.0,55.3,30.06,SE,134,0.0,1.0,66,0.00,,,0.00,0,Wunderground v.1.15,2013-06-16 02:20:00,
2013-06-15 22:25:00,66.8,55.5,30.06,SE,134,0.0,1.0,67,0.00,,,0.00,0,Wunderground v.1.15,2013-06-16 02:25:00,
2013-06-15 22:31:00,66.5,55.6,30.06,SE,134,0.0,1.0,68,0.00,,,0.00,0,Wunderground v.1.15,2013-06-16 02:31:00,
2013-06-15 22:37:00,66.4,55.9,30.06,SE,134,0.0,1.0,69,0.00,,,0.00,0,Wunderground v.1.15,2013-06-16 02:37:00,
2013-06-15 22:43:00,66.2,56.1,30.06,SE,134,0.0,1.0,70,0.00,,,0.00,0,Wunderground v.1.15,2013-06-16 02:43:00,
2013-06-15 22:48:00,66.0,55.9,30.06,SE,134,0.0,1.0,70,0.00,,,0.00,0,Wunderground v.1.15,2013-06-16 02:48:00,
2013-06-15 22:54:00,65.8,56.1,30.06,SE,134,0.0,1.0,71,0.00,,,0.00,0,Wunderground v.1.15,2013-06-16 02:54:00,
2013-06-15 22:59:00,65.6,55.9,30.06,SE,134,0.0,1.0,71,0.00,,,0.00,0,Wunderground v.1.15,2013-06-16 02:59:00,
2013-06-15 23:05:00,65.3,55.7,30.06,SE,134,0.0,1.0,71,0.00,,,0.00,0,Wunderground v.1.15,2013-06-16 03:05:00,
2013-06-15 23:11:00,65.2,56.3,30.06,SE,134,0.0,1.0,73,0.00,,,0.00,0,Wunderground v.1.15,2013-06-16 03:11:00,
2013-06-15 23:16:00,64.9,56.0,30.05,SE,134,0.0,1.0,73,0.00,,,0.00,0,Wunderground v.1.15,2013-06-16 03:16:00,
2013-06-15 23:21:00,64.7,56.2,30.05,SE,134,0.0,1.0,74,0.00,,,0.00,0,Wunderground v.1.15,2013-06-16 03:21:00,
2013-06-15 23:27:00,64.3,56.2,30.06,SE,134,0.0,1.0,75,0.00,,,0.00,0,Wunderground v.1.15,2013-06-16 03:27:00,
2013-06-15 23:32:00,64.1,56.4,30.06,SE,134,1.0,1.0,76,0.00,,,0.00,0,Wunderground v.1.15,2013-06-16 03:32:00,
2013-06-15 23:38:00,63.9,56.5,30.06,SE,134,1.0,1.0,77,0.00,,,0.00,0,Wunderground v.1.15,2013-06-16 03:38:00,
2013-06-15 23:44:00,63.7,56.7,30.06,SE,134,1.0,1.0,78,0.00,,,0.00,0,Wunderground v.1.15,2013-06-16 03:44:00,
2013-06-15 23:50:00,63.4,56.1,30.06,SE,134,0.0,1.0,77,0.00,,,0.00,0,Wunderground v.1.15,2013-06-16 03:50:00,
2013-06-15 23:56:00,63.2,56.6,30.07,SE,134,0.0,1.0,79,0.00,,,0.00,0,Wunderground v.1.15,2013-06-16 03:56:00,